Simultaneous Nadir Overpasses (SNOs) Predictions

Prediction of SNOs between FY3D and METOP-A Satellite Orbit:

Table of predicted SNOs for the next 14.0 days since TLE Epoch: 10/28/2021
Index Date (FY3D) Time (FY3D) Lat,Lon (FY3D) SZA (FY3D ) Date (METOP-A) Time (METOP-A) Lat,Lon (METOP-A) SZA (METOP-A ) Distance(km) Time Diff (sec)
1 11/10/2021 11:03:46 78.11, -7.36 95.84 11/10/2021 11:04:51 78.10, -3.68 95.62 84.57 65
2 11/10/2021 11:54:27 -77.97, 160.69 84.33 11/10/2021 11:55:36 -77.95, 162.93 84.49 52.05 69
3 11/10/2021 12:45:07 77.79, -31.08 95.46 11/10/2021 12:46:20 77.78, -30.53 95.40 12.86 73
4 11/10/2021 13:35:50 -77.74, 136.53 84.61 11/10/2021 13:37:03 -77.72, 136.50 84.64 2.00 73
5 11/10/2021 14:26:34 77.72, -56.06 95.38 11/10/2021 14:27:43 77.72, -56.17 95.37 2.53 69
6 11/10/2021 15:17:19 -77.74, 111.14 84.59 11/10/2021 15:18:24 -77.74, 111.26 84.61 2.75 65
7 11/10/2021 16:08:03 77.72, -81.45 95.41 11/10/2021 16:09:04 77.74, -81.41 95.41 2.39 61
8 11/10/2021 16:58:48 -77.74, 85.75 84.56 11/10/2021 16:59:46 -77.72, 85.82 84.60 3.22 58
9 11/10/2021 17:49:32 77.73,-106.84 95.43 11/10/2021 17:50:26 77.72,-106.85 95.41 0.69 54
10 11/10/2021 18:40:16 -77.71, 60.56 84.59 11/10/2021 18:41:07 -77.74, 60.58 84.57 3.71 51
11 11/10/2021 19:31:01 77.73,-132.23 95.46 11/10/2021 19:31:47 77.74,-132.09 95.45 3.58 46
12 11/10/2021 20:21:45 -77.71, 35.17 84.56 11/10/2021 20:22:29 -77.72, 35.14 84.56 1.17 44
13 11/10/2021 21:12:30 77.73,-157.62 95.48 11/10/2021 21:13:09 77.72,-157.53 95.45 2.78 39
14 11/10/2021 22:03:13 -77.72, 9.78 84.54 11/10/2021 22:03:50 -77.70, 9.70 84.56 2.73 37
15 11/10/2021 22:53:57 77.70, 177.19 95.45 11/10/2021 22:54:30 77.70, 177.03 95.46 3.65 33
16 11/10/2021 23:44:42 -77.72, -15.61 84.51 11/10/2021 23:45:11 -77.72, -15.54 84.52 1.58 29
17 11/11/2021 00:35:26 77.70, 151.80 95.48 11/11/2021 00:35:51 77.72, 151.79 95.49 2.01 25
18 11/11/2021 01:26:11 -77.72, -41.00 84.49 11/11/2021 01:26:33 -77.70, -40.98 84.52 2.91 22



Historial Predications of SNOs between FY3D and METOP-A
